Weather History for Kalispell, MT

Change the Weather History Date:

Tuesday, December 18, 2012

  Actual Average Record
Temperature  
Mean Temperature 25 °F 22 °F  
Max Temperature 31 °F 29 °F 53 °F (1917)
Min Temperature 19 °F 15 °F -27 °F (1924)
Degree Days  
Heating Degree Days 40 43  
Month to date heating degree days 621 745  
Since 1 July heating degree days 2601 2949  
Cooling Degree Days 0 0  
Month to date cooling degree days 0 0  
Year to date cooling degree days 192 147  
Moisture  
Dew Point 16 °F    
Average Humidity 71    
Maximum Humidity 92    
Minimum Humidity 49    
Precipitation  
Precipitation T in 0.05 in 0.72 in (1990)
Month to date precipitation 0.98 0.87  
Year to date precipitation 20.12 16.30  
Snow  
Snow T in - - ()
Month to date snowfall 3.3  
Year to date snowfall 30.8  
Since 1 July snowfall 5.7  
Snow Depth 2.00 in    
Sea Level Pressure  
Sea Level Pressure 29.86 in    
Wind  
Wind Speed 6 mph (SW)    
Max Wind Speed 18 mph    
Max Gust Speed 22 mph    
Visibility 10 miles    
Events      
T = Trace of Precipitation, MM = Missing Value Source: NWS Daily Summary

Daily Weather History Graph

Daily Weather History Graph

Search for Another Location

Airport:

Trip Planner

Search our weather history database for the weather conditions in past years. The results will help you decide how hot, cold, wet, or windy it might be!

Date:

Astronomy

Dec. 18, 2012 Rise Set
Actual Time 8:24 AM MST 4:43 PM MST
Civil Twilight 7:47 AM MST 5:20 PM MST
Nautical Twilight 7:07 AM MST 6:00 PM MST
Astronomical Twilight 6:29 AM MST 6:38 PM MST
Moon 11:39 AM MST (12/18) 11:43 PM MST (12/18)
Length of Visible Light 9h 33m
Length of Day
8h 19m
Waxing Crescent, 35% of the Moon is Illuminated
Dec 18
Waxing Crescent
Dec 19
First Quarter
Dec 28
Full
Jan 4
Last Quarter
Jan 11
New

Hourly Weather History & Observations

Time (MST) Temp. Windchill Dew Point Humidity Pressure Visibility Wind Dir Wind Speed Gust Speed Precip Events Conditions
12:55 AM 30.9 °F 23.5 °F 21.0 °F 67% 29.67 in 10.0 mi WSW 8.1 mph - N/A   Overcast
1:55 AM 30.0 °F 21.7 °F 19.9 °F 66% 29.70 in 10.0 mi South 9.2 mph - N/A   Overcast
2:55 AM 28.9 °F 19.2 °F 19.9 °F 69% 29.73 in 10.0 mi SSW 11.5 mph - N/A   Mostly Cloudy
3:55 AM 28.0 °F 16.5 °F 19.0 °F 69% 29.74 in 10.0 mi SSW 15.0 mph - N/A   Clear
4:55 AM 28.0 °F 18.6 °F 19.0 °F 69% 29.77 in 10.0 mi SSW 10.4 mph - N/A   Clear
5:55 AM 27.0 °F 18.7 °F 18.0 °F 69% 29.81 in 10.0 mi South 8.1 mph - N/A   Scattered Clouds
6:55 AM 27.0 °F 17.3 °F 18.0 °F 69% 29.82 in 10.0 mi SW 10.4 mph - N/A   Mostly Cloudy
7:55 AM 25.0 °F 16.3 °F 16.0 °F 69% 29.84 in 10.0 mi SSW 8.1 mph - N/A   Partly Cloudy
8:55 AM 25.0 °F 16.3 °F 16.0 °F 69% 29.86 in 10.0 mi SSW 8.1 mph - N/A   Mostly Cloudy
9:55 AM 23.0 °F 18.4 °F 14.0 °F 68% 29.88 in 10.0 mi South 3.5 mph - N/A   Partly Cloudy
10:55 AM 28.9 °F 21.9 °F 15.1 °F 56% 29.88 in 10.0 mi SSW 6.9 mph - N/A   Clear
11:55 AM 28.9 °F 21.1 °F 15.1 °F 56% 29.89 in 10.0 mi SSW 8.1 mph - N/A   Overcast
12:55 PM 28.9 °F 21.9 °F 15.1 °F 56% 29.88 in 10.0 mi SW 6.9 mph - N/A   Mostly Cloudy
1:55 PM 30.0 °F 23.2 °F 14.0 °F 51% 29.87 in 10.0 mi SW 6.9 mph - N/A   Mostly Cloudy
2:55 PM 30.9 °F 23.5 °F 15.1 °F 52% 29.87 in 10.0 mi SW 8.1 mph - N/A   Scattered Clouds
3:55 PM 27.0 °F 20.5 °F 15.1 °F 61% 29.89 in 10.0 mi SW 5.8 mph - N/A   Scattered Clouds
4:55 PM 27.0 °F 20.5 °F 16.0 °F 63% 29.90 in 10.0 mi WSW 5.8 mph - N/A   Overcast
5:55 PM 25.0 °F - 15.1 °F 66% 29.93 in 10.0 mi Calm Calm - N/A   Mostly Cloudy
6:55 PM 21.9 °F 13.4 °F 14.0 °F 72% 29.94 in 10.0 mi West 6.9 mph - N/A   Mostly Cloudy
7:55 PM 21.9 °F - 15.1 °F 75% 29.95 in 10.0 mi Calm Calm - N/A   Overcast
8:55 PM 21.0 °F - 16.0 °F 81% 29.96 in 10.0 mi Calm Calm - N/A   Overcast
9:55 PM 19.0 °F - 15.1 °F 85% 29.97 in 10.0 mi Calm Calm - N/A   Overcast
10:55 PM 19.9 °F - 17.1 °F 89% 29.96 in 10.0 mi Calm Calm - N/A   Overcast
11:55 PM 19.0 °F 12.3 °F 15.1 °F 85% 29.98 in 10.0 mi WNW 4.6 mph - 0.00 in   Overcast